Flag for Germany Weather past 2 weeks in Potsdam, Brandenburg, Germany

Now
60 °F

Passing clouds.


Feels Like: 60 °F
Forecast: 65 / 83 °F
Wind: 1 mph from East

Location: Potsdam

Current Time: Aug 1, 2014 at 8:02:01 AM

Latest Report: Aug 1, 2014 at 7:00 AM


Visibility: 22 mi

Pressure: 29.97 "Hg

Humidity: 92%

Dew point: 58 °F

Location of PotsdamLocation

Historic Weather in Potsdam — Graph

°F

Potsdam temperature yesterday

Maximum temperature yesterday: 76 °F (at 4:00 PM)
Minimum temperature yesterday: 60 °F (at 6:00 AM)
Average temperature yesterday: 68 °F

Past Weeks' High & Low Weather Summary

 TemperatureHumidityPressure
High93 °F (Jul 20, 4:00 PM)99% (Jul 26, 3:00 AM)30.19 "Hg (Jul 26, 3:00 AM)
Low58 °F (Aug 1, 6:00 AM)24% (Jul 20, 4:00 PM)29.68 "Hg (Jul 29, 4:00 PM)
Average72 °F72%29.94 "Hg
* Reported Jul 17 7:00 AM — Aug 1 7:00 AM, Potsdam, Weather by CustomWeather, © 2014

Note: Actual official high and low records may vary slightly from our data, if they occured in-between our weather recording intervals... More about our weather records

Advertising

Potsdam weather history for previous 24 hours

 ConditionsComfort  
Time TempWeatherWind HumidityBarometerVisibility
7:00 AM
Aug 1
60 °FSunny.1 mph92%29.97 "Hg18 mi
6:00 AM58 °FPassing clouds.1 mph94%29.97 "Hg19 mi
5:00 AM59 °FPassing clouds.2 mph94%29.97 "Hg19 mi
4:00 AM60 °FClear.1 mph77%29.97 "Hg25 mi
3:00 AM61 °FClear.1 mph85%29.98 "Hg22 mi
2:00 AM62 °FClear.2 mph77%29.98 "Hg25 mi
1:00 AM62 °FClear.2 mph86%29.98 "Hg25 mi
12:00 AM63 °FPassing clouds.1 mph72%29.97 "Hg25 mi
11:00 PM
Jul 31
64 °FPassing clouds.1 mph74%29.97 "Hg28 mi
10:00 PM65 °FPassing clouds.2 mph71%29.96 "Hg28 mi
9:00 PM67 °FPassing clouds.2 mph67%29.95 "Hg31 mi
8:00 PM71 °FPassing clouds.3 mph55%29.95 "Hg31 mi
7:00 PM74 °FScattered clouds.5 mph54%29.94 "Hg31 mi
6:00 PM75 °FScattered clouds.5 mph52%29.94 "Hg31 mi
5:00 PM75 °FScattered clouds.3 mph53%29.95 "Hg34 mi
4:00 PM76 °FPartly sunny.3 mph54%29.95 "Hg34 mi
3:00 PM75 °FPartly sunny.3 mph56%29.96 "Hg31 mi
2:00 PM74 °FPartly sunny.5 mph52%29.96 "Hg28 mi
1:00 PM72 °FPartly sunny.3 mph62%29.97 "Hg28 mi
12:00 PM69 °FPartly sunny.5 mph66%29.97 "Hg28 mi
11:00 AM69 °FPartly sunny.5 mph65%29.97 "Hg28 mi
10:00 AM67 °FPartly sunny.5 mph77%29.96 "Hg28 mi
9:00 AM65 °FScattered clouds.5 mph78%29.96 "Hg28 mi
8:00 AM62 °FPassing clouds.5 mph87%29.95 "Hg19 mi
Weather by CustomWeather, © 2014

See weather overviewHow to use our weather pages